COSMOS 2534 (758)

Last updated on Mon Sep 21 2026 00:03:22 GMT+0000 (Coordinated Universal Time)

1 44299U 19030A 26262.57023321 -.00000010 00000+0 00000+0 0 9992 2 44299 64.3695 189.4408 0011586 276.2227 270.4820 2.13102458 56938
UTC large
Height (km)
Speed (km/s)
/
Latitude / Longitude
Inclination (degrees)
Orbital Period (minutes)
Azimuth
Elevation
Range (km)
Doppler Factor

Next 0 passes for location: London (51.5072 / 0.1276)

No passes found over London.
COSMOS 2534 (758)